Satellite: PHARMSAT
Catalog number: 35002
Epoch time:      12026.85580099
Element set:     777
Inclination:      040.4647 deg
RA of node:       242.3033 deg
Eccentricity:    0.0006755
Arg of perigee:   078.9174 deg
Mean anomaly:     281.2367 deg
Mean motion:   15.63397822 rev/day
Decay rate:     5.2314e-04 rev/day^2
Epoch rev:           15191
Checksum:              301

Satellite: METEOR-M
Catalog number: 35865
Epoch time:      12026.79025528
Element set:      99
Inclination:      098.6759 deg
RA of node:       083.6542 deg
Eccentricity:    0.0003200
Arg of perigee:   097.9947 deg
Mean anomaly:     262.1592 deg
Mean motion:   14.21854226 rev/day
Decay rate:       -1.6e-07 rev/day^2
Epoch rev:           12236
Checksum:              311

Satellite: RS-38
Catalog number: 35869
Epoch time:      12026.62069582
Element set:      97
Inclination:      098.6729 deg
RA of node:       083.5043 deg
Eccentricity:    0.0005429
Arg of perigee:   102.6249 deg
Mean anomaly:     257.5551 deg
Mean motion:   14.22051653 rev/day
Decay rate:        4.7e-07 rev/day^2
Epoch rev:           12235
Checksum:              309

Satellite: ARISSAT1
Catalog number: 37772
Epoch time:      12004.04884568
Element set:     479
Inclination:      051.6129 deg
RA of node:       213.1240 deg
Eccentricity:    0.0007478
Arg of perigee:   255.9283 deg
Mean anomaly:     104.1611 deg
Mean motion:   16.41716225 rev/day
Decay rate:  1.3494171e-01 rev/day^2
Epoch rev:            2407
Checksum:              290

Satellite: JUGNU
Catalog number: 37839
Epoch time:      12025.50564863
Element set:      74
Inclination:      019.9643 deg
RA of node:       148.6643 deg
Eccentricity:    0.0019874
Arg of perigee:   080.1756 deg
Mean anomaly:     280.0891 deg
Mean motion:   14.12019925 rev/day
Decay rate:       6.19e-06 rev/day^2
Epoch rev:            1491
Checksum:              310

Satellite: SRMSAT
Catalog number: 37841
Epoch time:      12025.50650957
Element set:    0075
Inclination:      019.9708 deg
RA of node:       150.7313 deg
Eccentricity:    0.0011502
Arg of perigee:   050.8365 deg
Mean anomaly:     309.3097 deg
Mean motion:   14.10110123 rev/day
Decay rate:       2.64e-06 rev/day^2
Epoch rev:           01489
Checksum:              260

Satellite: RAX-2
Catalog number: 37853
Epoch time:      12026.88522335
Element set:      80
Inclination:      101.7085 deg
RA of node:       002.4510 deg
Eccentricity:    0.0251627
Arg of perigee:   036.1473 deg
Mean anomaly:     325.6445 deg
Mean motion:   14.78600858 rev/day
Decay rate:      8.574e-05 rev/day^2
Epoch rev:            1335
Checksum:              285

Satellite: AUBIESAT
Catalog number: 37854
Epoch time:      12026.87202004
Element set:      82
Inclination:      101.7114 deg
RA of node:       002.5177 deg
Eccentricity:    0.0253335
Arg of perigee:   035.7882 deg
Mean anomaly:     325.9999 deg
Mean motion:   14.78857505 rev/day
Decay rate:      9.549e-05 rev/day^2
Epoch rev:            1334
Checksum:              304

Satellite: HRBE
Catalog number: 37855
Epoch time:      12025.92746880
Element set:    0092
Inclination:      101.7130 deg
RA of node:       001.1320 deg
Eccentricity:    0.0253830
Arg of perigee:   038.3261 deg
Mean anomaly:     323.5705 deg
Mean motion:   14.78768749 rev/day
Decay rate:      8.640e-05 rev/day^2
Epoch rev:           01320
Checksum:              275

/EX
_______________________________________________
Via the Keps mailing list courtesy of AMSAT-NA
http://amsat.org/mailman/listinfo/keps

--- ViaMAIL!/WC v1.60d
 * Origin: Chowdanet (401-724-4410) telnet://chowdanet.com  (1:323/120)